Information on these data can be found in provided Readme document
Contact Info: Zachary Fasnacht (zachary.fasnacht@ssaihq.com); Nickolay Krotkov (nickolay.a.krotkov@nasa.gov); Lok Lamsal (lok.lamsal@nasa.gov)

FillValue: -999.
ScaleFactor: 1e15
Units: molecules/cm^2

Date(yyyy-mm-dd),City,Country,LonCenter,LatCenter,BoundingCoordinates,Median,Q1,Q3,Mean,Baseline_Median,Baseline_Q1,Baseline_Q3,Baseline_Mean,NumGoodSamples,NumTotalSamples
2015-01-01,Monrovia,Liberia,-10.8074,6.3156,[-11.3074 5.8156 -10.3074 6.8156],0.444,0.143,0.671,0.41,0.485,0.137,0.785,0.471,233.0,522.0
2015-01-02,Monrovia,Liberia,-10.8074,6.3156,[-11.3074 5.8156 -10.3074 6.8156],0.444,0.143,0.67,0.412,0.474,0.137,0.794,0.477,210.0,525.0
2015-01-03,Monrovia,Liberia,-10.8074,6.3156,[-11.3074 5.8156 -10.3074 6.8156],0.424,0.069,0.658,0.385,0.452,0.098,0.775,0.454,229.0,512.0
2015-01-04,Monrovia,Liberia,-10.8074,6.3156,[-11.3074 5.8156 -10.3074 6.8156],0.456,0.124,0.673,0.423,0.446,0.099,0.783,0.456,211.0,534.0
2015-01-05,Monrovia,Liberia,-10.8074,6.3156,[-11.3074 5.8156 -10.3074 6.8156],0.416,0.124,0.652,0.404,0.426,0.09,0.761,0.442,231.0,503.0
2015-01-06,Monrovia,Liberia,-10.8074,6.3156,[-11.3074 5.8156 -10.3074 6.8156],0.444,0.163,0.673,0.447,0.428,0.116,0.761,0.456,212.0,536.0
2015-01-07,Monrovia,Liberia,-10.8074,6.3156,[-11.3074 5.8156 -10.3074 6.8156],0.399,0.161,0.648,0.411,0.425,0.132,0.742,0.451,195.0,510.0
2015-01-08,Monrovia,Liberia,-10.8074,6.3156,[-11.3074 5.8156 -10.3074 6.8156],0.402,0.161,0.648,0.401,0.422,0.118,0.746,0.45,215.0,537.0
2015-01-09,Monrovia,Liberia,-10.8074,6.3156,[-11.3074 5.8156 -10.3074 6.8156],0.391,0.161,0.611,0.382,0.41,0.112,0.737,0.436,189.0,506.0
2015-01-10,Monrovia,Liberia,-10.8074,6.3156,[-11.3074 5.8156 -10.3074 6.8156],0.391,0.161,0.611,0.382,0.388,0.076,0.718,0.405,189.0,470.0
2015-01-11,Monrovia,Liberia,-10.8074,6.3156,[-11.3074 5.8156 -10.3074 6.8156],0.391,0.165,0.637,0.391,0.388,0.108,0.728,0.412,167.0,478.0
2015-01-12,Monrovia,Liberia,-10.8074,6.3156,[-11.3074 5.8156 -10.3074 6.8156],0.391,0.161,0.611,0.377,0.393,0.081,0.716,0.4,178.0,456.0
2015-01-13,Monrovia,Liberia,-10.8074,6.3156,[-11.3074 5.8156 -10.3074 6.8156],0.348,0.103,0.591,0.327,0.369,0.064,0.706,0.389,156.0,483.0
2015-01-14,Monrovia,Liberia,-10.8074,6.3156,[-11.3074 5.8156 -10.3074 6.8156],0.337,0.077,0.591,0.295,0.343,0.05,0.689,0.36,177.0,454.0
2015-01-15,Monrovia,Liberia,-10.8074,6.3156,[-11.3074 5.8156 -10.3074 6.8156],0.3,0.021,0.563,0.265,0.345,0.011,0.713,0.353,157.0,486.0
2015-01-16,Monrovia,Liberia,-10.8074,6.3156,[-11.3074 5.8156 -10.3074 6.8156],0.3,0.021,0.537,0.285,0.342,0.019,0.721,0.363,145.0,468.0
2015-01-17,Monrovia,Liberia,-10.8074,6.3156,[-11.3074 5.8156 -10.3074 6.8156],0.334,0.064,0.591,0.316,0.36,0.043,0.718,0.372,173.0,475.0
2015-01-18,Monrovia,Liberia,-10.8074,6.3156,[-11.3074 5.8156 -10.3074 6.8156],0.348,0.08,0.595,0.344,0.348,0.042,0.729,0.377,154.0,475.0
2015-01-19,Monrovia,Liberia,-10.8074,6.3156,[-11.3074 5.8156 -10.3074 6.8156],0.348,0.077,0.619,0.37,0.344,0.041,0.721,0.371,177.0,461.0
2015-01-20,Monrovia,Liberia,-10.8074,6.3156,[-11.3074 5.8156 -10.3074 6.8156],0.35,0.064,0.671,0.389,0.343,0.029,0.712,0.368,157.0,483.0
2015-01-21,Monrovia,Liberia,-10.8074,6.3156,[-11.3074 5.8156 -10.3074 6.8156],0.367,0.095,0.683,0.419,0.324,0.028,0.718,0.367,177.0,450.0
2015-01-22,Monrovia,Liberia,-10.8074,6.3156,[-11.3074 5.8156 -10.3074 6.8156],0.443,0.037,0.856,0.442,0.311,-0.012,0.72,0.345,157.0,484.0
2015-01-23,Monrovia,Liberia,-10.8074,6.3156,[-11.3074 5.8156 -10.3074 6.8156],0.369,0.046,0.671,0.414,0.285,-0.026,0.656,0.322,139.0,459.0
2015-01-24,Monrovia,Liberia,-10.8074,6.3156,[-11.3074 5.8156 -10.3074 6.8156],0.409,0.077,0.785,0.437,0.295,-0.031,0.683,0.334,173.0,505.0
2015-01-25,Monrovia,Liberia,-10.8074,6.3156,[-11.3074 5.8156 -10.3074 6.8156],0.369,0.041,0.715,0.42,0.29,-0.025,0.667,0.334,193.0,525.0
2015-01-26,Monrovia,Liberia,-10.8074,6.3156,[-11.3074 5.8156 -10.3074 6.8156],0.369,0.046,0.715,0.423,0.289,-0.012,0.636,0.336,202.0,519.0
2015-01-27,Monrovia,Liberia,-10.8074,6.3156,[-11.3074 5.8156 -10.3074 6.8156],0.372,0.046,0.793,0.445,0.281,-0.014,0.632,0.336,217.0,526.0
2015-01-28,Monrovia,Liberia,-10.8074,6.3156,[-11.3074 5.8156 -10.3074 6.8156],0.372,0.046,0.793,0.445,0.265,-0.029,0.624,0.315,217.0,505.0
2015-01-29,Monrovia,Liberia,-10.8074,6.3156,[-11.3074 5.8156 -10.3074 6.8156],0.443,0.16,0.91,0.512,0.271,-0.012,0.64,0.319,196.0,533.0
2015-01-30,Monrovia,Liberia,-10.8074,6.3156,[-11.3074 5.8156 -10.3074 6.8156],0.35,0.089,0.683,0.421,0.258,-0.023,0.577,0.293,218.0,506.0
2015-01-31,Monrovia,Liberia,-10.8074,6.3156,[-11.3074 5.8156 -10.3074 6.8156],0.348,0.05,0.703,0.399,0.229,-0.052,0.548,0.267,224.0,537.0
2015-02-01,Monrovia,Liberia,-10.8074,6.3156,[-11.3074 5.8156 -10.3074 6.8156],0.31,0.022,0.615,0.362,0.226,-0.063,0.529,0.262,215.0,518.0
2015-02-02,Monrovia,Liberia,-10.8074,6.3156,[-11.3074 5.8156 -10.3074 6.8156],0.341,0.022,0.615,0.377,0.246,-0.038,0.525,0.269,236.0,527.0
2015-02-03,Monrovia,Liberia,-10.8074,6.3156,[-11.3074 5.8156 -10.3074 6.8156],0.305,0.022,0.542,0.344,0.233,-0.033,0.499,0.256,229.0,527.0
2015-02-04,Monrovia,Liberia,-10.8074,6.3156,[-11.3074 5.8156 -10.3074 6.8156],0.269,0.012,0.542,0.327,0.218,-0.028,0.5,0.254,236.0,513.0
2015-02-05,Monrovia,Liberia,-10.8074,6.3156,[-11.3074 5.8156 -10.3074 6.8156],0.216,-0.02,0.522,0.291,0.208,-0.045,0.496,0.241,219.0,536.0
2015-02-06,Monrovia,Liberia,-10.8074,6.3156,[-11.3074 5.8156 -10.3074 6.8156],0.235,-0.019,0.506,0.288,0.222,-0.031,0.499,0.25,239.0,503.0
2015-02-07,Monrovia,Liberia,-10.8074,6.3156,[-11.3074 5.8156 -10.3074 6.8156],0.216,-0.026,0.532,0.286,0.228,-0.027,0.508,0.258,220.0,535.0
2015-02-08,Monrovia,Liberia,-10.8074,6.3156,[-11.3074 5.8156 -10.3074 6.8156],0.21,-0.027,0.496,0.272,0.224,-0.011,0.481,0.25,192.0,509.0
2015-02-09,Monrovia,Liberia,-10.8074,6.3156,[-11.3074 5.8156 -10.3074 6.8156],0.206,-0.027,0.508,0.268,0.23,-0.004,0.484,0.254,207.0,536.0
2015-02-10,Monrovia,Liberia,-10.8074,6.3156,[-11.3074 5.8156 -10.3074 6.8156],0.183,-0.032,0.497,0.26,0.209,-0.03,0.483,0.241,198.0,505.0
2015-02-11,Monrovia,Liberia,-10.8074,6.3156,[-11.3074 5.8156 -10.3074 6.8156],0.181,-0.058,0.467,0.232,0.208,-0.027,0.461,0.24,172.0,468.0
2015-02-12,Monrovia,Liberia,-10.8074,6.3156,[-11.3074 5.8156 -10.3074 6.8156],0.181,-0.035,0.496,0.249,0.223,-0.014,0.492,0.254,199.0,475.0
2015-02-13,Monrovia,Liberia,-10.8074,6.3156,[-11.3074 5.8156 -10.3074 6.8156],0.21,-0.011,0.56,0.284,0.211,-0.019,0.491,0.254,219.0,452.0
2015-02-14,Monrovia,Liberia,-10.8074,6.3156,[-11.3074 5.8156 -10.3074 6.8156],0.309,-0.011,0.683,0.342,0.243,-0.003,0.527,0.277,197.0,479.0
2015-02-15,Monrovia,Liberia,-10.8074,6.3156,[-11.3074 5.8156 -10.3074 6.8156],0.307,0.022,0.613,0.331,0.255,0.016,0.526,0.283,180.0,450.0
2015-02-16,Monrovia,Liberia,-10.8074,6.3156,[-11.3074 5.8156 -10.3074 6.8156],0.32,0.044,0.645,0.362,0.245,0.0,0.515,0.272,179.0,482.0
2015-02-17,Monrovia,Liberia,-10.8074,6.3156,[-11.3074 5.8156 -10.3074 6.8156],0.331,0.022,0.613,0.337,0.242,-0.012,0.508,0.264,178.0,462.0
2015-02-18,Monrovia,Liberia,-10.8074,6.3156,[-11.3074 5.8156 -10.3074 6.8156],0.345,0.022,0.613,0.338,0.239,-0.033,0.501,0.26,190.0,469.0
2015-02-19,Monrovia,Liberia,-10.8074,6.3156,[-11.3074 5.8156 -10.3074 6.8156],0.346,0.022,0.613,0.345,0.251,-0.025,0.538,0.275,201.0,470.0
2015-02-20,Monrovia,Liberia,-10.8074,6.3156,[-11.3074 5.8156 -10.3074 6.8156],0.346,0.022,0.608,0.337,0.263,-0.017,0.52,0.278,224.0,457.0
2015-02-21,Monrovia,Liberia,-10.8074,6.3156,[-11.3074 5.8156 -10.3074 6.8156],0.35,0.021,0.62,0.358,0.264,-0.006,0.53,0.289,211.0,481.0
2015-02-22,Monrovia,Liberia,-10.8074,6.3156,[-11.3074 5.8156 -10.3074 6.8156],0.346,0.022,0.613,0.355,0.276,0.001,0.535,0.29,231.0,449.0
2015-02-23,Monrovia,Liberia,-10.8074,6.3156,[-11.3074 5.8156 -10.3074 6.8156],0.35,0.044,0.608,0.343,0.264,-0.017,0.534,0.281,225.0,483.0
2015-02-24,Monrovia,Liberia,-10.8074,6.3156,[-11.3074 5.8156 -10.3074 6.8156],0.34,0.029,0.587,0.332,0.269,-0.028,0.535,0.287,209.0,456.0
2015-02-25,Monrovia,Liberia,-10.8074,6.3156,[-11.3074 5.8156 -10.3074 6.8156],0.338,0.029,0.576,0.325,0.288,-0.01,0.549,0.302,246.0,502.0
2015-02-26,Monrovia,Liberia,-10.8074,6.3156,[-11.3074 5.8156 -10.3074 6.8156],0.313,0.013,0.575,0.309,0.264,-0.03,0.52,0.28,265.0,522.0
2015-02-27,Monrovia,Liberia,-10.8074,6.3156,[-11.3074 5.8156 -10.3074 6.8156],0.306,0.013,0.571,0.295,0.265,-0.033,0.51,0.272,264.0,516.0
2015-02-28,Monrovia,Liberia,-10.8074,6.3156,[-11.3074 5.8156 -10.3074 6.8156],0.292,0.009,0.534,0.297,0.274,-0.027,0.513,0.282,271.0,525.0
2015-03-01,Monrovia,Liberia,-10.8074,6.3156,[-11.3074 5.8156 -10.3074 6.8156],0.259,-0.005,0.522,0.282,0.251,-0.045,0.497,0.262,289.0,503.0
2015-03-02,Monrovia,Liberia,-10.8074,6.3156,[-11.3074 5.8156 -10.3074 6.8156],0.265,-0.012,0.571,0.287,0.26,-0.038,0.517,0.268,283.0,531.0
2015-03-03,Monrovia,Liberia,-10.8074,6.3156,[-11.3074 5.8156 -10.3074 6.8156],0.265,-0.005,0.553,0.281,0.25,-0.031,0.513,0.262,287.0,503.0
2015-03-04,Monrovia,Liberia,-10.8074,6.3156,[-11.3074 5.8156 -10.3074 6.8156],0.261,-0.01,0.553,0.277,0.24,-0.031,0.528,0.255,290.0,534.0
2015-03-05,Monrovia,Liberia,-10.8074,6.3156,[-11.3074 5.8156 -10.3074 6.8156],0.261,-0.006,0.553,0.284,0.245,-0.031,0.523,0.26,281.0,516.0
2015-03-06,Monrovia,Liberia,-10.8074,6.3156,[-11.3074 5.8156 -10.3074 6.8156],0.259,-0.026,0.553,0.282,0.225,-0.04,0.498,0.245,285.0,524.0
2015-03-07,Monrovia,Liberia,-10.8074,6.3156,[-11.3074 5.8156 -10.3074 6.8156],0.257,-0.004,0.553,0.276,0.227,-0.04,0.532,0.252,270.0,524.0
2015-03-08,Monrovia,Liberia,-10.8074,6.3156,[-11.3074 5.8156 -10.3074 6.8156],0.257,0.002,0.553,0.278,0.216,-0.052,0.53,0.247,285.0,509.0
2015-03-09,Monrovia,Liberia,-10.8074,6.3156,[-11.3074 5.8156 -10.3074 6.8156],0.257,-0.004,0.566,0.3,0.22,-0.058,0.539,0.256,277.0,533.0
2015-03-10,Monrovia,Liberia,-10.8074,6.3156,[-11.3074 5.8156 -10.3074 6.8156],0.254,-0.038,0.553,0.282,0.226,-0.06,0.535,0.257,290.0,501.0
2015-03-11,Monrovia,Liberia,-10.8074,6.3156,[-11.3074 5.8156 -10.3074 6.8156],0.265,-0.038,0.553,0.29,0.233,-0.048,0.542,0.257,271.0,535.0
2015-03-12,Monrovia,Liberia,-10.8074,6.3156,[-11.3074 5.8156 -10.3074 6.8156],0.273,-0.031,0.566,0.296,0.234,-0.056,0.551,0.257,243.0,509.0
2015-03-13,Monrovia,Liberia,-10.8074,6.3156,[-11.3074 5.8156 -10.3074 6.8156],0.267,-0.01,0.559,0.309,0.258,-0.04,0.557,0.28,258.0,535.0
2015-03-14,Monrovia,Liberia,-10.8074,6.3156,[-11.3074 5.8156 -10.3074 6.8156],0.274,-0.012,0.598,0.315,0.246,-0.041,0.578,0.278,232.0,504.0
2015-03-15,Monrovia,Liberia,-10.8074,6.3156,[-11.3074 5.8156 -10.3074 6.8156],0.254,-0.038,0.553,0.283,0.237,-0.044,0.554,0.267,205.0,467.0
2015-03-16,Monrovia,Liberia,-10.8074,6.3156,[-11.3074 5.8156 -10.3074 6.8156],0.274,-0.031,0.559,0.296,0.256,-0.03,0.572,0.283,208.0,471.0
2015-03-17,Monrovia,Liberia,-10.8074,6.3156,[-11.3074 5.8156 -10.3074 6.8156],0.274,-0.044,0.553,0.271,0.263,-0.037,0.582,0.28,229.0,449.0
2015-03-18,Monrovia,Liberia,-10.8074,6.3156,[-11.3074 5.8156 -10.3074 6.8156],0.251,-0.11,0.559,0.26,0.285,-0.011,0.593,0.321,207.0,476.0
2015-03-19,Monrovia,Liberia,-10.8074,6.3156,[-11.3074 5.8156 -10.3074 6.8156],0.25,-0.136,0.559,0.258,0.289,-0.009,0.621,0.341,184.0,449.0
2015-03-20,Monrovia,Liberia,-10.8074,6.3156,[-11.3074 5.8156 -10.3074 6.8156],0.245,-0.173,0.55,0.272,0.307,-0.013,0.617,0.344,190.0,480.0
2015-03-21,Monrovia,Liberia,-10.8074,6.3156,[-11.3074 5.8156 -10.3074 6.8156],0.334,-0.107,0.635,0.428,0.31,0.01,0.619,0.373,188.0,460.0
2015-03-22,Monrovia,Liberia,-10.8074,6.3156,[-11.3074 5.8156 -10.3074 6.8156],0.276,-0.11,0.635,0.42,0.296,-0.007,0.603,0.361,206.0,466.0
2015-03-23,Monrovia,Liberia,-10.8074,6.3156,[-11.3074 5.8156 -10.3074 6.8156],0.267,-0.135,0.646,0.438,0.295,0.004,0.59,0.361,200.0,468.0
2015-03-24,Monrovia,Liberia,-10.8074,6.3156,[-11.3074 5.8156 -10.3074 6.8156],0.334,-0.113,0.762,0.443,0.29,0.02,0.603,0.356,215.0,454.0
2015-03-25,Monrovia,Liberia,-10.8074,6.3156,[-11.3074 5.8156 -10.3074 6.8156],0.373,-0.04,0.837,0.529,0.293,0.046,0.588,0.372,213.0,476.0
2015-03-26,Monrovia,Liberia,-10.8074,6.3156,[-11.3074 5.8156 -10.3074 6.8156],0.267,-0.103,0.762,0.463,0.274,0.026,0.601,0.374,231.0,445.0
2015-03-27,Monrovia,Liberia,-10.8074,6.3156,[-11.3074 5.8156 -10.3074 6.8156],0.261,-0.11,0.775,0.478,0.266,0.019,0.591,0.371,222.0,479.0
2015-03-28,Monrovia,Liberia,-10.8074,6.3156,[-11.3074 5.8156 -10.3074 6.8156],0.267,-0.11,0.828,0.496,0.272,0.025,0.628,0.382,188.0,454.0
2015-03-29,Monrovia,Liberia,-10.8074,6.3156,[-11.3074 5.8156 -10.3074 6.8156],0.279,-0.103,0.828,0.493,0.284,0.036,0.634,0.398,221.0,499.0
2015-03-30,Monrovia,Liberia,-10.8074,6.3156,[-11.3074 5.8156 -10.3074 6.8156],0.292,-0.086,0.793,0.485,0.287,0.018,0.634,0.395,228.0,521.0
2015-03-31,Monrovia,Liberia,-10.8074,6.3156,[-11.3074 5.8156 -10.3074 6.8156],0.35,0.012,0.858,0.532,0.301,0.05,0.643,0.407,233.0,518.0
2015-04-01,Monrovia,Liberia,-10.8074,6.3156,[-11.3074 5.8156 -10.3074 6.8156],0.356,0.04,0.986,0.602,0.305,0.052,0.664,0.423,212.0,525.0
2015-04-02,Monrovia,Liberia,-10.8074,6.3156,[-11.3074 5.8156 -10.3074 6.8156],0.356,0.026,0.861,0.555,0.297,0.034,0.632,0.399,231.0,501.0
2015-04-03,Monrovia,Liberia,-10.8074,6.3156,[-11.3074 5.8156 -10.3074 6.8156],0.356,0.026,0.861,0.555,0.289,0.051,0.617,0.383,231.0,529.0
2015-04-04,Monrovia,Liberia,-10.8074,6.3156,[-11.3074 5.8156 -10.3074 6.8156],0.305,0.038,0.767,0.508,0.283,0.048,0.593,0.378,227.0,501.0
2015-04-05,Monrovia,Liberia,-10.8074,6.3156,[-11.3074 5.8156 -10.3074 6.8156],0.305,0.038,0.717,0.426,0.277,0.032,0.593,0.351,215.0,532.0
2015-04-06,Monrovia,Liberia,-10.8074,6.3156,[-11.3074 5.8156 -10.3074 6.8156],0.356,0.039,0.64,0.431,0.292,0.028,0.591,0.361,202.0,515.0
2015-04-07,Monrovia,Liberia,-10.8074,6.3156,[-11.3074 5.8156 -10.3074 6.8156],0.305,0.053,0.61,0.4,0.275,0.032,0.561,0.35,211.0,522.0
2015-04-08,Monrovia,Liberia,-10.8074,6.3156,[-11.3074 5.8156 -10.3074 6.8156],0.288,0.038,0.576,0.397,0.278,0.009,0.566,0.349,199.0,522.0
2015-04-09,Monrovia,Liberia,-10.8074,6.3156,[-11.3074 5.8156 -10.3074 6.8156],0.305,0.038,0.601,0.404,0.266,-0.01,0.552,0.331,212.0,510.0
2015-04-10,Monrovia,Liberia,-10.8074,6.3156,[-11.3074 5.8156 -10.3074 6.8156],0.36,0.069,0.64,0.501,0.281,0.01,0.557,0.35,207.0,533.0
2015-04-11,Monrovia,Liberia,-10.8074,6.3156,[-11.3074 5.8156 -10.3074 6.8156],0.364,0.12,0.64,0.494,0.298,0.018,0.576,0.373,226.0,502.0
2015-04-12,Monrovia,Liberia,-10.8074,6.3156,[-11.3074 5.8156 -10.3074 6.8156],0.364,0.12,0.64,0.494,0.296,0.015,0.582,0.37,226.0,536.0
2015-04-13,Monrovia,Liberia,-10.8074,6.3156,[-11.3074 5.8156 -10.3074 6.8156],0.344,0.1,0.606,0.475,0.292,0.009,0.574,0.368,207.0,512.0
2015-04-14,Monrovia,Liberia,-10.8074,6.3156,[-11.3074 5.8156 -10.3074 6.8156],0.315,0.076,0.607,0.472,0.292,0.003,0.565,0.37,236.0,537.0
2015-04-15,Monrovia,Liberia,-10.8074,6.3156,[-11.3074 5.8156 -10.3074 6.8156],0.305,0.069,0.576,0.448,0.267,0.011,0.563,0.357,210.0,506.0
2015-04-16,Monrovia,Liberia,-10.8074,6.3156,[-11.3074 5.8156 -10.3074 6.8156],0.305,0.069,0.576,0.448,0.262,0.011,0.557,0.352,210.0,470.0
2015-04-17,Monrovia,Liberia,-10.8074,6.3156,[-11.3074 5.8156 -10.3074 6.8156],0.315,0.09,0.601,0.469,0.263,0.019,0.567,0.363,217.0,479.0
2015-04-18,Monrovia,Liberia,-10.8074,6.3156,[-11.3074 5.8156 -10.3074 6.8156],0.359,0.1,0.606,0.471,0.279,0.018,0.573,0.374,228.0,458.0
2015-04-19,Monrovia,Liberia,-10.8074,6.3156,[-11.3074 5.8156 -10.3074 6.8156],0.364,0.096,0.61,0.507,0.271,0.005,0.572,0.377,207.0,485.0
2015-04-20,Monrovia,Liberia,-10.8074,6.3156,[-11.3074 5.8156 -10.3074 6.8156],0.326,0.087,0.576,0.473,0.266,0.015,0.585,0.391,209.0,459.0
2015-04-21,Monrovia,Liberia,-10.8074,6.3156,[-11.3074 5.8156 -10.3074 6.8156],0.326,0.096,0.647,0.508,0.267,0.021,0.608,0.389,216.0,491.0
2015-04-22,Monrovia,Liberia,-10.8074,6.3156,[-11.3074 5.8156 -10.3074 6.8156],0.359,0.087,0.648,0.499,0.267,0.006,0.635,0.387,208.0,471.0
2015-04-23,Monrovia,Liberia,-10.8074,6.3156,[-11.3074 5.8156 -10.3074 6.8156],0.329,0.087,0.556,0.453,0.261,0.018,0.607,0.373,213.0,478.0
2015-04-24,Monrovia,Liberia,-10.8074,6.3156,[-11.3074 5.8156 -10.3074 6.8156],0.303,0.087,0.534,0.4,0.277,0.027,0.629,0.386,206.0,475.0
2015-04-25,Monrovia,Liberia,-10.8074,6.3156,[-11.3074 5.8156 -10.3074 6.8156],0.3,0.087,0.499,0.341,0.269,0.005,0.638,0.368,193.0,457.0
2015-04-26,Monrovia,Liberia,-10.8074,6.3156,[-11.3074 5.8156 -10.3074 6.8156],0.207,0.047,0.534,0.328,0.253,-0.012,0.63,0.359,184.0,476.0
2015-04-27,Monrovia,Liberia,-10.8074,6.3156,[-11.3074 5.8156 -10.3074 6.8156],0.207,0.047,0.534,0.328,0.252,-0.023,0.636,0.345,184.0,443.0
2015-04-28,Monrovia,Liberia,-10.8074,6.3156,[-11.3074 5.8156 -10.3074 6.8156],0.268,0.046,0.55,0.337,0.284,0.003,0.678,0.373,170.0,475.0
2015-04-29,Monrovia,Liberia,-10.8074,6.3156,[-11.3074 5.8156 -10.3074 6.8156],0.273,0.044,0.55,0.339,0.301,-0.001,0.699,0.382,138.0,448.0
2015-04-30,Monrovia,Liberia,-10.8074,6.3156,[-11.3074 5.8156 -10.3074 6.8156],0.3,0.044,0.594,0.352,0.323,-0.019,0.696,0.389,166.0,495.0
2015-05-01,Monrovia,Liberia,-10.8074,6.3156,[-11.3074 5.8156 -10.3074 6.8156],0.287,0.032,0.539,0.321,0.336,0.004,0.731,0.392,185.0,520.0
2015-05-02,Monrovia,Liberia,-10.8074,6.3156,[-11.3074 5.8156 -10.3074 6.8156],0.287,0.025,0.516,0.31,0.307,-0.017,0.694,0.373,185.0,518.0
2015-05-03,Monrovia,Liberia,-10.8074,6.3156,[-11.3074 5.8156 -10.3074 6.8156],0.282,0.025,0.548,0.312,0.315,-0.003,0.702,0.371,190.0,523.0
2015-05-04,Monrovia,Liberia,-10.8074,6.3156,[-11.3074 5.8156 -10.3074 6.8156],0.301,0.036,0.563,0.333,0.339,0.016,0.697,0.382,209.0,503.0
2015-05-05,Monrovia,Liberia,-10.8074,6.3156,[-11.3074 5.8156 -10.3074 6.8156],0.318,-0.001,0.602,0.352,0.336,0.008,0.699,0.375,199.0,528.0
2015-05-06,Monrovia,Liberia,-10.8074,6.3156,[-11.3074 5.8156 -10.3074 6.8156],0.282,-0.045,0.5,0.269,0.333,-0.003,0.666,0.359,194.0,503.0
2015-05-07,Monrovia,Liberia,-10.8074,6.3156,[-11.3074 5.8156 -10.3074 6.8156],0.281,-0.044,0.541,0.289,0.328,-0.002,0.652,0.365,198.0,536.0
2015-05-08,Monrovia,Liberia,-10.8074,6.3156,[-11.3074 5.8156 -10.3074 6.8156],0.293,-0.042,0.563,0.302,0.346,0.005,0.693,0.38,196.0,517.0
2015-05-09,Monrovia,Liberia,-10.8074,6.3156,[-11.3074 5.8156 -10.3074 6.8156],0.282,-0.042,0.551,0.305,0.322,0.001,0.675,0.375,198.0,527.0
2015-05-10,Monrovia,Liberia,-10.8074,6.3156,[-11.3074 5.8156 -10.3074 6.8156],0.281,-0.044,0.548,0.294,0.313,-0.001,0.662,0.365,212.0,529.0
2015-05-11,Monrovia,Liberia,-10.8074,6.3156,[-11.3074 5.8156 -10.3074 6.8156],0.281,-0.044,0.533,0.287,0.29,-0.006,0.649,0.358,202.0,516.0
2015-05-12,Monrovia,Liberia,-10.8074,6.3156,[-11.3074 5.8156 -10.3074 6.8156],0.282,-0.044,0.533,0.289,0.306,0.0,0.652,0.363,205.0,537.0
2015-05-13,Monrovia,Liberia,-10.8074,6.3156,[-11.3074 5.8156 -10.3074 6.8156],0.311,-0.034,0.533,0.305,0.282,-0.018,0.629,0.348,221.0,506.0
2015-05-14,Monrovia,Liberia,-10.8074,6.3156,[-11.3074 5.8156 -10.3074 6.8156],0.311,-0.034,0.533,0.302,0.262,-0.02,0.612,0.328,217.0,540.0
2015-05-15,Monrovia,Liberia,-10.8074,6.3156,[-11.3074 5.8156 -10.3074 6.8156],0.282,-0.045,0.513,0.265,0.272,-0.027,0.614,0.331,208.0,513.0
2015-05-16,Monrovia,Liberia,-10.8074,6.3156,[-11.3074 5.8156 -10.3074 6.8156],0.286,-0.054,0.551,0.286,0.277,-0.024,0.634,0.341,220.0,535.0
2015-05-17,Monrovia,Liberia,-10.8074,6.3156,[-11.3074 5.8156 -10.3074 6.8156],0.286,-0.044,0.533,0.283,0.278,-0.017,0.625,0.339,194.0,501.0
2015-05-18,Monrovia,Liberia,-10.8074,6.3156,[-11.3074 5.8156 -10.3074 6.8156],0.281,-0.065,0.52,0.264,0.27,-0.035,0.626,0.33,178.0,465.0
2015-05-19,Monrovia,Liberia,-10.8074,6.3156,[-11.3074 5.8156 -10.3074 6.8156],0.231,-0.079,0.52,0.24,0.25,-0.053,0.624,0.321,177.0,472.0
2015-05-20,Monrovia,Liberia,-10.8074,6.3156,[-11.3074 5.8156 -10.3074 6.8156],0.231,-0.079,0.52,0.24,0.263,-0.041,0.621,0.319,177.0,452.0
2015-05-21,Monrovia,Liberia,-10.8074,6.3156,[-11.3074 5.8156 -10.3074 6.8156],0.286,-0.032,0.551,0.297,0.296,-0.029,0.648,0.344,159.0,474.0
2015-05-22,Monrovia,Liberia,-10.8074,6.3156,[-11.3074 5.8156 -10.3074 6.8156],0.279,-0.006,0.551,0.288,0.326,-0.012,0.689,0.363,143.0,447.0
2015-05-23,Monrovia,Liberia,-10.8074,6.3156,[-11.3074 5.8156 -10.3074 6.8156],0.248,-0.031,0.533,0.274,0.334,-0.016,0.682,0.363,144.0,478.0
2015-05-24,Monrovia,Liberia,-10.8074,6.3156,[-11.3074 5.8156 -10.3074 6.8156],0.234,-0.065,0.533,0.258,0.353,-0.03,0.689,0.36,139.0,459.0
2015-05-25,Monrovia,Liberia,-10.8074,6.3156,[-11.3074 5.8156 -10.3074 6.8156],0.248,-0.056,0.573,0.269,0.379,-0.051,0.724,0.372,125.0,467.0
2015-05-26,Monrovia,Liberia,-10.8074,6.3156,[-11.3074 5.8156 -10.3074 6.8156],0.248,-0.056,0.573,0.269,0.384,-0.026,0.718,0.372,125.0,468.0
2015-05-27,Monrovia,Liberia,-10.8074,6.3156,[-11.3074 5.8156 -10.3074 6.8156],0.234,-0.074,0.538,0.26,0.366,-0.03,0.7,0.364,124.0,454.0
2015-05-28,Monrovia,Liberia,-10.8074,6.3156,[-11.3074 5.8156 -10.3074 6.8156],0.163,-0.104,0.603,0.217,0.34,-0.033,0.692,0.349,108.0,476.0
2015-05-29,Monrovia,Liberia,-10.8074,6.3156,[-11.3074 5.8156 -10.3074 6.8156],0.163,-0.104,0.603,0.217,0.383,0.005,0.724,0.382,108.0,443.0
2015-05-30,Monrovia,Liberia,-10.8074,6.3156,[-11.3074 5.8156 -10.3074 6.8156],0.209,-0.056,0.629,0.267,0.352,0.022,0.676,0.348,89.0,477.0
2015-05-31,Monrovia,Liberia,-10.8074,6.3156,[-11.3074 5.8156 -10.3074 6.8156],0.115,-0.087,0.46,0.2,0.298,0.011,0.604,0.312,71.0,452.0
2015-06-01,Monrovia,Liberia,-10.8074,6.3156,[-11.3074 5.8156 -10.3074 6.8156],0.202,-0.084,0.46,0.216,0.33,0.034,0.642,0.34,100.0,498.0
2015-06-02,Monrovia,Liberia,-10.8074,6.3156,[-11.3074 5.8156 -10.3074 6.8156],0.202,-0.084,0.46,0.216,0.336,0.029,0.641,0.34,100.0,520.0
2015-06-03,Monrovia,Liberia,-10.8074,6.3156,[-11.3074 5.8156 -10.3074 6.8156],0.202,-0.084,0.372,0.197,0.338,0.03,0.627,0.338,82.0,515.0
2015-06-04,Monrovia,Liberia,-10.8074,6.3156,[-11.3074 5.8156 -10.3074 6.8156],0.202,-0.084,0.372,0.199,0.325,0.033,0.65,0.342,84.0,522.0
2015-06-05,Monrovia,Liberia,-10.8074,6.3156,[-11.3074 5.8156 -10.3074 6.8156],0.147,-0.099,0.372,0.18,0.284,0.011,0.625,0.315,97.0,503.0
2015-06-06,Monrovia,Liberia,-10.8074,6.3156,[-11.3074 5.8156 -10.3074 6.8156],0.134,-0.133,0.372,0.164,0.269,-0.001,0.601,0.3,92.0,528.0
2015-06-07,Monrovia,Liberia,-10.8074,6.3156,[-11.3074 5.8156 -10.3074 6.8156],0.134,-0.133,0.372,0.146,0.251,-0.016,0.578,0.297,73.0,502.0
2015-06-08,Monrovia,Liberia,-10.8074,6.3156,[-11.3074 5.8156 -10.3074 6.8156],0.147,-0.133,0.372,0.148,0.237,-0.023,0.559,0.292,64.0,533.0
2015-06-09,Monrovia,Liberia,-10.8074,6.3156,[-11.3074 5.8156 -10.3074 6.8156],0.147,-0.133,0.372,0.148,0.253,-0.005,0.557,0.299,64.0,517.0
2015-06-10,Monrovia,Liberia,-10.8074,6.3156,[-11.3074 5.8156 -10.3074 6.8156],0.147,-0.133,0.372,0.145,0.243,-0.008,0.537,0.285,78.0,526.0
2015-06-11,Monrovia,Liberia,-10.8074,6.3156,[-11.3074 5.8156 -10.3074 6.8156],0.194,-0.133,0.412,0.167,0.267,0.005,0.525,0.28,84.0,526.0
2015-06-12,Monrovia,Liberia,-10.8074,6.3156,[-11.3074 5.8156 -10.3074 6.8156],0.194,-0.133,0.46,0.173,0.258,-0.003,0.527,0.274,89.0,513.0
2015-06-13,Monrovia,Liberia,-10.8074,6.3156,[-11.3074 5.8156 -10.3074 6.8156],0.18,-0.133,0.436,0.166,0.26,-0.01,0.517,0.271,90.0,538.0
2015-06-14,Monrovia,Liberia,-10.8074,6.3156,[-11.3074 5.8156 -10.3074 6.8156],0.18,-0.133,0.436,0.166,0.253,-0.045,0.552,0.272,90.0,507.0
2015-06-15,Monrovia,Liberia,-10.8074,6.3156,[-11.3074 5.8156 -10.3074 6.8156],0.194,-0.162,0.519,0.186,0.265,-0.032,0.58,0.282,77.0,540.0
2015-06-16,Monrovia,Liberia,-10.8074,6.3156,[-11.3074 5.8156 -10.3074 6.8156],0.147,-0.212,0.514,0.148,0.242,-0.068,0.537,0.243,48.0,514.0
2015-06-17,Monrovia,Liberia,-10.8074,6.3156,[-11.3074 5.8156 -10.3074 6.8156],0.147,-0.212,0.514,0.148,0.231,-0.056,0.513,0.249,48.0,539.0
2015-06-18,Monrovia,Liberia,-10.8074,6.3156,[-11.3074 5.8156 -10.3074 6.8156],0.147,-0.212,0.514,0.148,0.23,-0.041,0.509,0.25,48.0,507.0
2015-06-19,Monrovia,Liberia,-10.8074,6.3156,[-11.3074 5.8156 -10.3074 6.8156],0.147,-0.212,0.514,0.145,0.192,-0.048,0.496,0.234,46.0,470.0